When you browse on this site, cookies collect data to enhance your experience and personalize the content and advertising you see.
Visit our Privacy Policy to learn more. By continuing to use the site, you agree to this use of cookies and data.
  • En España
  • Lista de países
  • Para 7 días
  • Temperatura del agua
  • Mapa Satelital
  • El tiempo en el mapa
  • Informadores
  • user-avatar
    Iniciar sesión

    Tiempo cada hora Smolan

    Hoy, 17 Noviembre, Sábado

    Tiempo Temperatura Precipitaciones Viento Presión Humedad
    00:00 -5°C° 0 mm 2 mps 659 mmHg 82%
    01:00 -5°C° 0 mm 2 mps 659 mmHg 82%
    02:00 -7°C° 0 mm 3 mps 659 mmHg 82%
    03:00 -6°C° 0 mm 2 mps 659 mmHg 82%
    04:00 -6°C° 0 mm 2 mps 659 mmHg 82%
    05:00 -7°C° 0 mm 2 mps 659 mmHg 82%
    06:00 -6°C° 0 mm 2 mps 659 mmHg 80%
    07:00 -6°C° 0 mm 2 mps 659 mmHg 77%
    08:00 -6°C° 0 mm 2 mps 659 mmHg 75%
    09:00 -5°C° 0 mm 2 mps 659 mmHg 68%
    10:00 -3°C° 0 mm 2 mps 660 mmHg 60%
    11:00 -2°C° 0 mm 2 mps 660 mmHg 53%
    12:00 -1°C° 0 mm 2 mps 660 mmHg 53%
    13:00 -1°C° 0 mm 2 mps 660 mmHg 52%
    14:00 +1°C° 0 mm 2 mps 660 mmHg 51%
    15:00 -1°C° 0 mm 2 mps 660 mmHg 55%
    16:00 -2°C° 0 mm 2 mps 659 mmHg 58%
    17:00 -2°C° 0 mm 2 mps 659 mmHg 62%
    18:00 -3°C° 0 mm 2 mps 659 mmHg 66%
    19:00 -4°C° 0 mm 2 mps 659 mmHg 70%
    20:00 -5°C° 0 mm 2 mps 659 mmHg 74%
    21:00 -5°C° 0 mm 2 mps 659 mmHg 75%
    22:00 -5°C° 0 mm 2 mps 659 mmHg 76%
    23:00 -5°C° 0 mm 2 mps 659 mmHg 76%

    Mañana, 18 Noviembre, Domingo

    Tiempo Temperatura Precipitaciones Viento Presión Humedad
    00:00 -5°C° 0 mm 2 mps 659 mmHg 77%
    01:00 -4°C° 0 mm 2 mps 658 mmHg 78%
    02:00 -4°C° 0 mm 2 mps 658 mmHg 79%
    03:00 -4°C° 0 mm 2 mps 658 mmHg 79%
    04:00 -4°C° 0 mm 2 mps 658 mmHg 79%
    05:00 -4°C° 0 mm 2 mps 657 mmHg 79%
    06:00 -3°C° 0 mm 2 mps 657 mmHg 78%
    07:00 -3°C° 0 mm 2 mps 657 mmHg 77%
    08:00 -3°C° 0 mm 2 mps 657 mmHg 77%
    09:00 -1°C° 0 mm 2 mps 657 mmHg 73%
    10:00 +1°C° 0 mm 2 mps 657 mmHg 69%
    11:00 +1°C° 0 mm 3 mps 657 mmHg 66%
    12:00 +1°C° 0.2 mm 3 mps 657 mmHg 68%
    13:00 +1°C° 0.2 mm 3 mps 656 mmHg 71%
    14:00 +1°C° 0.2 mm 3 mps 655 mmHg 74%
    15:00 +1°C° 1 mm 3 mps 655 mmHg 79%
    16:00 +1°C° 1 mm 2 mps 654 mmHg 84%
    17:00 -1°C° 1 mm 2 mps 653 mmHg 88%
    18:00 -1°C° 2.1 mm 2 mps 653 mmHg 89%
    19:00 -1°C° 2.1 mm 2 mps 652 mmHg 90%
    20:00 -1°C° 2.1 mm 2 mps 652 mmHg 91%
    21:00 +1°C° 2 mm 2 mps 651 mmHg 92%
    22:00 +1°C° 2 mm 2 mps 651 mmHg 92%
    23:00 +1°C° 2 mm 2 mps 650 mmHg 93%

    Pasado mañana, 19 Noviembre, Lunes

    Tiempo Temperatura Precipitaciones Viento Presión Humedad
    00:00 +1°C° 2.3 mm 2 mps 650 mmHg 93%
    01:00 +1°C° 2.3 mm 2 mps 649 mmHg 93%
    02:00 +1°C° 2.3 mm 2 mps 649 mmHg 93%
    03:00 +1°C° 0.5 mm 2 mps 649 mmHg 92%
    04:00 +1°C° 0.5 mm 2 mps 649 mmHg 91%
    05:00 +1°C° 0.5 mm 2 mps 649 mmHg 91%
    06:00 +1°C° 0 mm 2 mps 649 mmHg 90%
    07:00 +1°C° 0 mm 2 mps 649 mmHg 89%
    08:00 +2°C° 0 mm 1 mps 650 mmHg 88%
    09:00 +3°C° 0 mm 1 mps 651 mmHg 85%
    10:00 +5°C° 0 mm 1 mps 651 mmHg 82%
    11:00 +6°C° 0 mm 1 mps 652 mmHg 79%
    12:00 +7°C° 0 mm 1 mps 652 mmHg 77%
    13:00 +7°C° 0 mm 1 mps 653 mmHg 76%
    14:00 +8°C° 0 mm 1 mps 653 mmHg 74%
    15:00 +7°C° 0 mm 1 mps 653 mmHg 77%
    16:00 +6°C° 0 mm 1 mps 653 mmHg 81%
    17:00 +4°C° 0 mm 1 mps 653 mmHg 85%
    18:00 +4°C° 0 mm 1 mps 653 mmHg 86%
    19:00 +3°C° 0 mm 1 mps 653 mmHg 87%
    20:00 +3°C° 0 mm 1 mps 653 mmHg 88%
    21:00 +3°C° 0 mm 1 mps 654 mmHg 88%
    22:00 +2°C° 0 mm 1 mps 654 mmHg 88%
    23:00 +2°C° 0 mm 1 mps 654 mmHg 89%

    20 Noviembre, Martes

    Tiempo Temperatura Precipitaciones Viento Presión Humedad
    00:00 +2°C° 0 mm 1 mps 654 mmHg 88%
    01:00 +2°C° 0 mm 1 mps 655 mmHg 88%
    02:00 +2°C° 0 mm 1 mps 655 mmHg 88%
    03:00 +2°C° 0 mm 1 mps 655 mmHg 88%
    04:00 +2°C° 0 mm 1 mps 654 mmHg 88%
    05:00 +2°C° 0 mm 1 mps 654 mmHg 89%
    06:00 +2°C° 0 mm 1 mps 654 mmHg 89%
    07:00 +3°C° 0 mm 1 mps 655 mmHg 89%
    08:00 +3°C° 0 mm 1 mps 655 mmHg 89%
    09:00 +3°C° 0.1 mm 2 mps 655 mmHg 89%
    10:00 +4°C° 0.1 mm 2 mps 655 mmHg 89%
    11:00 +5°C° 0.1 mm 2 mps 656 mmHg 89%
    12:00 +6°C° 0.1 mm 2 mps 655 mmHg 89%
    13:00 +6°C° 0.1 mm 2 mps 655 mmHg 88%
    14:00 +7°C° 0.1 mm 2 mps 655 mmHg 88%
    15:00 +7°C° 0.2 mm 2 mps 655 mmHg 91%
    16:00 +6°C° 0.2 mm 2 mps 654 mmHg 93%
    17:00 +6°C° 0.2 mm 2 mps 654 mmHg 96%
    18:00 +6°C° 0.2 mm 2 mps 654 mmHg 96%
    19:00 +6°C° 0.2 mm 2 mps 654 mmHg 96%
    20:00 +7°C° 0.2 mm 2 mps 653 mmHg 97%
    21:00 +7°C° 0.1 mm 3 mps 653 mmHg 97%
    22:00 +7°C° 0.1 mm 3 mps 653 mmHg 96%
    23:00 +8°C° 0.1 mm 3 mps 653 mmHg 96%

    21 Noviembre, Miércoles

    Tiempo Temperatura Precipitaciones Viento Presión Humedad
    00:00 +8°C° 0.3 mm 3 mps 653 mmHg 96%
    01:00 +8°C° 0.3 mm 3 mps 653 mmHg 95%
    02:00 +8°C° 0.3 mm 3 mps 652 mmHg 95%
    03:00 +7°C° 0.1 mm 3 mps 652 mmHg 95%
    04:00 +7°C° 0.1 mm 2 mps 652 mmHg 95%
    05:00 +7°C° 0.1 mm 1 mps 652 mmHg 95%
    06:00 +6°C° 0 mm 2 mps 652 mmHg 94%
    07:00 +6°C° 0 mm 2 mps 652 mmHg 93%
    08:00 +5°C° 0 mm 2 mps 652 mmHg 92%
    09:00 +8°C° 0 mm 1 mps 653 mmHg 84%
    10:00 +10°C° 0 mm 1 mps 653 mmHg 75%
    11:00 +12°C° 0 mm 1 mps 654 mmHg 67%
    12:00 +12°C° 0 mm 1 mps 654 mmHg 64%
    13:00 +13°C° 0 mm 1 mps 654 mmHg 61%
    14:00 +13°C° 0 mm 1 mps 654 mmHg 58%
    15:00 +12°C° 0 mm 1 mps 654 mmHg 64%
    16:00 +10°C° 0 mm 1 mps 654 mmHg 71%
    17:00 +7°C° 0 mm 0 mps 653 mmHg 78%
    18:00 +8°C° 0 mm 1 mps 654 mmHg 79%
    19:00 +7°C° 0 mm 1 mps 654 mmHg 80%
    20:00 +7°C° 0 mm 1 mps 654 mmHg 81%
    21:00 +7°C° 0 mm 1 mps 654 mmHg 81%
    22:00 +6°C° 0 mm 1 mps 654 mmHg 80%
    23:00 +6°C° 0 mm 1 mps 655 mmHg 80%

    22 Noviembre, Jueves

    Tiempo Temperatura Precipitaciones Viento Presión Humedad
    00:00 +6°C° 0 mm 1 mps 655 mmHg 80%
    01:00 +6°C° 0 mm 1 mps 655 mmHg 80%
    02:00 +6°C° 0 mm 1 mps 655 mmHg 80%
    03:00 +5°C° 0 mm 1 mps 655 mmHg 81%
    04:00 +5°C° 0 mm 1 mps 655 mmHg 82%
    05:00 +5°C° 0 mm 1 mps 655 mmHg 82%
    06:00 +5°C° 0 mm 1 mps 656 mmHg 83%
    07:00 +5°C° 0 mm 1 mps 656 mmHg 84%
    08:00 +5°C° 0 mm 1 mps 656 mmHg 85%
    09:00 +6°C° 0.2 mm 1 mps 657 mmHg 82%
    10:00 +7°C° 0.2 mm 1 mps 657 mmHg 80%
    11:00 +8°C° 0.2 mm 1 mps 658 mmHg 78%
    12:00 +8°C° 0.4 mm 1 mps 658 mmHg 78%
    13:00 +8°C° 0.4 mm 1 mps 658 mmHg 79%
    14:00 +8°C° 0.4 mm 1 mps 658 mmHg 80%
    15:00 +7°C° 0.1 mm 1 mps 658 mmHg 83%
    16:00 +7°C° 0.1 mm 1 mps 658 mmHg 86%
    17:00 +6°C° 0.1 mm 1 mps 658 mmHg 89%
    18:00 +6°C° 0.1 mm 1 mps 658 mmHg 89%
    19:00 +5°C° 0.1 mm 1 mps 658 mmHg 90%
    20:00 +5°C° 0.1 mm 1 mps 659 mmHg 91%
    21:00 +5°C° 0.1 mm 1 mps 659 mmHg 91%
    22:00 +4°C° 0.1 mm 1 mps 659 mmHg 91%
    23:00 +4°C° 0.1 mm 1 mps 659 mmHg 92%
    Mostrar más